Content
SEND FEEDBACK

Daily
Averages
Monthly
Summary
Colombia

BOGOTA, COLOMBIA


Home > South America > Colombia
Elevation: 8357 feet     Latitude: 04 42N     Longitude: 074 08W

WEATHER
 
SELECT A DAY
Number of Records: 169,078;   Date Range: 6/30/96 - 8/31/14
 
SHARE

PRINT THIS DATA

[ ← Previous Day ]
WEATHER ALMANAC - APRIL 28, 2013
[ Next Day → ]
[ °C ]   °F
Weather ElementAverageHighLow
Temperature58 °F66.2 °F (11:00 am)50 °F (6:00 am)
Dewpoint51.1 °F53.6 °F (3:00 pm)48.2 °F (6:00 am)
Humidity77.5 %100 % (10:00 pm)46 % (10:00 am)
Barometer29.17 in30.34 in (8:40 am) (7:00 pm)
Wind Speed6 mph18.4 mph (1:36 pm)
Weather ElementAverage
Visibility6.5 mi
Wind DirectionSSW (191.7 °)

Weather ElementTotal
Precipitation---
Heating Degree Days6.9 (Base 65)
Growing Degree Days8.1 (Base 50)
Averaged from 35 records on April 28, 2013
WEATHER CONDITIONS BREAKOUT
WIND DIRECTION BREAKOUT
WEATHER BY HOUR - APRIL 28, 2013
[ °C ]   °F
Local TimeTemperatureDewpointHumidityBarometerVisibilityWind DirectionWind SpeedGust SpeedPrecipitationEventsConditions
1:00 AM53.0 °F51.0 °F88 %6.0 miNW (310°)2.2 mphHaze
1:00 AM53.6 °F50.0 °F88 %30.33 in6.2 miVariable2.3 mphScattered Clouds
2:00 AM53.6 °F51.8 °F94 %30.31 in6.2 miEast (90°)4.6 mphScattered Clouds
3:00 AM51.8 °F50.0 °F94 %30.28 in6.2 miNNE (30°)3.5 mphScattered Clouds
4:00 AM52.0 °F50.0 °F89 %6.0 miNNE (30°)4.5 mphHaze
4:00 AM51.8 °F50.0 °F94 %30.28 in6.2 miNNE (30°)3.5 mphScattered Clouds
5:00 AM51.8 °F50.0 °F94 %30.28 in6.2 miVariable2.3 mphScattered Clouds
5:30 AM51.8 °F50.0 °F94 %30.29 in6.2 miNorth (10°)3.5 mphFogShallow Fog
6:00 AM50.0 °F48.2 °F94 %30.29 in6.2 miNNW (330°)3.5 mphFogShallow Fog
7:00 AM52.0 °F50.0 °F91 %10.0 miNorth (350°)4.5 mphHaze
7:00 AM51.8 °F50.0 °F94 %30.31 in6.2 miNorth (350°)3.5 mphMostly Cloudy
8:00 AM57.2 °F50.0 °F77 %30.33 in6.2 miNE (50°)4.6 mphScattered Clouds
8:40 AM62.6 °F51.8 °F68 %30.34 in6.2 miNW (320°)3.5 mphScattered Clouds
9:00 AM62.6 °F50.0 °F63 %30.34 in6.2 miNW (320°)5.8 mphScattered Clouds
10:00 AM65.0 °F49.0 °F46 %12.0 miNorth (350°)4.5 mphHaze
10:00 AM64.4 °F50.0 °F59 %30.34 in6.2 miNorth (350°)3.5 mphScattered Clouds
11:00 AM66.2 °F51.8 °F60 %30.33 in6.2 miWest (280°)9.2 mphMostly Cloudy
12:00 PM66.2 °F51.8 °F60 %30.31 in6.2 miWSW (240°)13.8 mphMostly Cloudy
12:34 PM66.2 °F50.0 °F56 %30.29 in6.2 miSW (220°)16.1 mphThunderstormThunderstorm
1:00 PM65.0 °F51.0 °F50 %3.0 miWSW (250°)13.4 mphThunderstormThunderstorm
1:00 PM64.4 °F51.8 °F64 %30.29 in6.2 miWSW (250°)13.8 mphThunderstormThunderstorm
1:36 PM59.0 °F48.2 °F67 %6.2 miSSE (150°)18.4 mphRain-ThunderstormLight Thunderstorms and Rain
2:00 PM57.2 °F50.0 °F77 %30.27 in5.0 miSSE (160°)10.4 mphRain-ThunderstormThunderstorms and Rain
3:00 PM60.8 °F53.6 °F77 %30.24 in6.2 miSSE (150°)9.2 mphScattered Clouds
4:00 PM63.0 °F53.0 °F60 %6.0 miNNW (340°)4.5 mphPartly Cloudy
4:00 PM62.6 °F53.6 °F72 %30.21 in6.2 miNNW (340°)3.5 mphScattered Clouds
5:00 PM60.8 °F51.8 °F72 %30.21 in6.2 miWNW (300°)4.6 mphScattered Clouds
6:00 PM62.6 °F51.8 °F68 %30.23 in6.2 miWest (260°)9.2 mphScattered Clouds
7:00 PM59.0 °F53.0 °F73 %9.0 miWest (270°)4.5 mphPartly Cloudy
7:00 PM59.0 °F51.8 °F77 %30.26 in6.2 miWest (270°)4.6 mphScattered Clouds
8:00 PM57.2 °F53.6 °F88 %30.28 in6.2 miNW (310°)5.8 mphScattered Clouds
9:00 PM55.4 °F53.6 °F94 %30.29 in6.2 miVariable2.3 mphScattered Clouds
10:00 PM54.0 °F9.0 miNorth2.2 mph
10:00 PM53.6 °F53.6 °F100 %30.30 in6.2 miVariable2.3 mphScattered Clouds
11:00 PM51.8 °F50.0 °F94 %30.32 in6.2 miVariable2.3 mphScattered Clouds
Hourly data recorded from SKBO, located miles away from Bogota, Colombia







STORIES FROM OUR PARTNERS